Time,TemperatureF,DewpointF,PressureIn,WindDirection,WindDirectionDegrees,WindSpeedMPH,WindSpeedGustMPH,Humidity,HourlyPrecipIn,Conditions,Clouds,dailyrainin,SoftwareType,DateUTC
2013-02-06 00:02:00,40.3,39.0,30.09,North,349,0.0,0.0,94,0.00,,,0.01,weatherlink.com 1.10,2013-02-06 05:02:00,
2013-02-06 00:17:00,39.6,38.0,30.09,North,349,0.0,1.0,94,0.00,,,0.00,weatherlink.com 1.10,2013-02-06 05:17:00,
2013-02-06 00:32:00,38.8,37.0,30.10,North,349,0.0,1.0,94,0.00,,,0.00,weatherlink.com 1.10,2013-02-06 05:32:00,
2013-02-06 00:47:00,38.5,37.0,30.10,North,350,0.0,0.0,94,0.00,,,0.00,weatherlink.com 1.10,2013-02-06 05:47:00,
2013-02-06 01:02:00,38.1,37.0,30.10,North,349,0.0,0.0,94,0.00,,,0.00,weatherlink.com 1.10,2013-02-06 06:02:00,
2013-02-06 01:17:00,37.4,36.0,30.10,North,350,0.0,1.0,94,0.00,,,0.00,weatherlink.com 1.10,2013-02-06 06:17:00,
2013-02-06 01:32:00,37.1,36.0,30.10,North,349,0.0,1.0,94,0.00,,,0.00,weatherlink.com 1.10,2013-02-06 06:32:00,
2013-02-06 01:47:00,36.8,36.0,30.10,North,349,0.0,0.0,95,0.00,,,0.00,weatherlink.com 1.10,2013-02-06 06:47:00,
2013-02-06 02:02:00,36.1,35.0,30.10,North,350,0.0,1.0,95,0.00,,,0.00,weatherlink.com 1.10,2013-02-06 07:02:00,
2013-02-06 02:18:00,36.0,35.0,30.11,North,350,0.0,1.0,95,0.00,,,0.00,weatherlink.com 1.10,2013-02-06 07:18:00,
2013-02-06 02:33:00,35.7,34.0,30.11,North,350,0.0,1.0,95,0.00,,,0.00,weatherlink.com 1.10,2013-02-06 07:33:00,
2013-02-06 02:48:00,35.7,34.0,30.11,North,349,0.0,1.0,95,0.00,,,0.00,weatherlink.com 1.10,2013-02-06 07:48:00,
2013-02-06 03:03:00,35.1,34.0,30.11,North,350,0.0,0.0,95,0.00,,,0.00,weatherlink.com 1.10,2013-02-06 08:03:00,
2013-02-06 03:18:00,34.7,34.0,30.12,North,349,0.0,0.0,95,0.00,,,0.00,weatherlink.com 1.10,2013-02-06 08:18:00,
2013-02-06 03:33:00,35.2,34.0,30.12,North,350,0.0,1.0,95,0.00,,,0.00,weatherlink.com 1.10,2013-02-06 08:33:00,
2013-02-06 03:48:00,35.1,34.0,30.12,North,349,0.0,1.0,95,0.00,,,0.00,weatherlink.com 1.10,2013-02-06 08:48:00,
2013-02-06 04:18:00,34.0,33.0,30.13,North,349,0.0,1.0,95,0.00,,,0.00,weatherlink.com 1.10,2013-02-06 09:18:00,
2013-02-06 04:33:00,33.3,32.0,30.13,North,349,0.0,1.0,95,0.00,,,0.00,weatherlink.com 1.10,2013-02-06 09:33:00,
2013-02-06 04:48:00,32.6,31.0,30.14,North,350,0.0,0.0,95,0.00,,,0.00,weatherlink.com 1.10,2013-02-06 09:48:00,
2013-02-06 05:03:00,32.4,31.0,30.14,North,349,1.0,1.0,95,0.00,,,0.00,weatherlink.com 1.10,2013-02-06 10:03:00,
2013-02-06 05:18:00,32.2,31.0,30.15,North,350,0.0,1.0,95,0.00,,,0.00,weatherlink.com 1.10,2013-02-06 10:18:00,
2013-02-06 05:33:00,32.0,31.0,30.15,North,349,0.0,1.0,95,0.00,,,0.00,weatherlink.com 1.10,2013-02-06 10:33:00,
2013-02-06 05:48:00,31.6,30.0,30.16,North,350,0.0,0.0,95,0.00,,,0.00,weatherlink.com 1.10,2013-02-06 10:48:00,
2013-02-06 06:03:00,31.4,30.0,30.17,North,349,0.0,1.0,95,0.00,,,0.00,weatherlink.com 1.10,2013-02-06 11:03:00,
2013-02-06 06:18:00,32.1,31.0,30.17,North,350,0.0,1.0,95,0.00,,,0.00,weatherlink.com 1.10,2013-02-06 11:18:00,
2013-02-06 06:33:00,31.8,31.0,30.18,North,349,0.0,1.0,95,0.00,,,0.00,weatherlink.com 1.10,2013-02-06 11:33:00,
2013-02-06 06:48:00,32.0,31.0,30.18,North,349,0.0,0.0,95,0.00,,,0.00,weatherlink.com 1.10,2013-02-06 11:48:00,
2013-02-06 07:03:00,31.2,30.0,30.18,North,349,0.0,0.0,95,0.00,,,0.00,weatherlink.com 1.10,2013-02-06 12:03:00,
2013-02-06 07:18:00,31.2,30.0,30.19,North,349,0.0,0.0,95,0.01,,,0.01,weatherlink.com 1.10,2013-02-06 12:18:00,
2013-02-06 07:33:00,31.0,30.0,30.20,North,350,0.0,0.0,95,0.01,,,0.01,weatherlink.com 1.10,2013-02-06 12:33:00,
2013-02-06 07:48:00,30.8,30.0,30.20,North,350,0.0,0.0,95,0.01,,,0.01,weatherlink.com 1.10,2013-02-06 12:48:00,
2013-02-06 08:03:00,30.8,30.0,30.20,North,349,0.0,0.0,95,0.01,,,0.01,weatherlink.com 1.10,2013-02-06 13:03:00,
2013-02-06 08:18:00,31.2,30.0,30.21,North,350,0.0,0.0,95,0.00,,,0.01,weatherlink.com 1.10,2013-02-06 13:18:00,
2013-02-06 08:33:00,33.0,32.0,30.21,North,349,1.0,2.0,96,0.00,,,0.01,weatherlink.com 1.10,2013-02-06 13:33:00,
2013-02-06 08:48:00,35.2,34.0,30.21,North,350,0.0,0.0,96,0.00,,,0.01,weatherlink.com 1.10,2013-02-06 13:48:00,
2013-02-06 09:03:00,35.8,35.0,30.22,North,349,1.0,1.0,96,0.00,,,0.01,weatherlink.com 1.10,2013-02-06 14:03:00,
2013-02-06 09:18:00,37.1,36.0,30.23,North,349,0.0,0.0,96,0.00,,,0.01,weatherlink.com 1.10,2013-02-06 14:18:00,
2013-02-06 09:33:00,39.3,38.0,30.23,North,349,0.0,0.0,96,0.00,,,0.01,weatherlink.com 1.10,2013-02-06 14:33:00,
2013-02-06 09:48:00,40.9,40.0,30.23,SSE,167,0.0,2.0,96,0.00,,,0.01,weatherlink.com 1.10,2013-02-06 14:48:00,
2013-02-06 10:04:00,42.6,42.0,30.23,SSE,159,0.0,1.0,96,0.00,,,0.01,weatherlink.com 1.10,2013-02-06 15:04:00,
2013-02-06 10:19:00,44.9,43.0,30.24,SSE,155,1.0,2.0,93,0.00,,,0.01,weatherlink.com 1.10,2013-02-06 15:19:00,
2013-02-06 10:34:00,47.3,43.0,30.24,SSE,152,1.0,2.0,84,0.00,,,0.01,weatherlink.com 1.10,2013-02-06 15:34:00,
2013-02-06 10:49:00,49.6,41.0,30.25,SE,136,1.0,2.0,73,0.00,,,0.01,weatherlink.com 1.10,2013-02-06 15:49:00,
2013-02-06 11:04:00,51.2,41.0,30.24,SSE,150,1.0,2.0,68,0.00,,,0.01,weatherlink.com 1.10,2013-02-06 16:04:00,
2013-02-06 11:19:00,52.4,38.0,30.24,East,98,1.0,3.0,58,0.00,,,0.01,weatherlink.com 1.10,2013-02-06 16:19:00,
2013-02-06 11:34:00,53.4,37.0,30.24,North,4,1.0,2.0,55,0.00,,,0.01,weatherlink.com 1.10,2013-02-06 16:34:00,
2013-02-06 11:49:00,55.4,38.0,30.24,East,86,2.0,3.0,52,0.00,,,0.01,weatherlink.com 1.10,2013-02-06 16:49:00,
2013-02-06 12:04:00,55.1,34.0,30.24,NNE,20,0.0,5.0,46,0.00,,,0.01,weatherlink.com 1.10,2013-02-06 17:04:00,
2013-02-06 12:19:00,56.8,34.0,30.23,NNW,348,1.0,4.0,42,0.00,,,0.01,weatherlink.com 1.10,2013-02-06 17:19:00,
2013-02-06 12:34:00,56.8,32.0,30.22,NW,314,1.0,5.0,39,0.00,,,0.01,weatherlink.com 1.10,2013-02-06 17:34:00,
2013-02-06 12:49:00,57.8,30.0,30.23,WNW,300,3.0,5.0,35,0.00,,,0.01,weatherlink.com 1.10,2013-02-06 17:49:00,
2013-02-06 13:04:00,58.6,32.0,30.22,NNE,15,1.0,3.0,36,0.00,,,0.01,weatherlink.com 1.10,2013-02-06 18:04:00,
2013-02-06 13:19:00,58.5,31.0,30.21,West,266,1.0,5.0,36,0.00,,,0.01,weatherlink.com 1.10,2013-02-06 18:19:00,
2013-02-06 13:34:00,59.0,32.0,30.20,ENE,67,1.0,4.0,36,0.00,,,0.01,weatherlink.com 1.10,2013-02-06 18:34:00,
2013-02-06 13:49:00,59.5,32.0,30.20,East,98,1.0,4.0,35,0.00,,,0.01,weatherlink.com 1.10,2013-02-06 18:49:00,
2013-02-06 14:04:00,61.1,33.0,30.19,West,280,1.0,4.0,35,0.00,,,0.01,weatherlink.com 1.10,2013-02-06 19:04:00,
2013-02-06 14:19:00,61.3,33.0,30.18,NNE,30,3.0,5.0,34,0.00,,,0.01,weatherlink.com 1.10,2013-02-06 19:19:00,
2013-02-06 14:34:00,62.2,33.0,30.18,NE,53,2.0,5.0,34,0.00,,,0.01,weatherlink.com 1.10,2013-02-06 19:34:00,
2013-02-06 14:49:00,62.2,30.0,30.18,SW,218,1.0,4.0,30,0.00,,,0.01,weatherlink.com 1.10,2013-02-06 19:49:00,
2013-02-06 15:05:00,62.2,30.0,30.18,NW,308,2.0,5.0,30,0.00,,,0.01,weatherlink.com 1.10,2013-02-06 20:05:00,
2013-02-06 15:20:00,62.4,30.0,30.18,NNE,29,3.0,4.0,30,0.00,,,0.01,weatherlink.com 1.10,2013-02-06 20:20:00,
2013-02-06 15:35:00,62.7,32.0,30.18,NE,47,1.0,5.0,32,0.00,,,0.01,weatherlink.com 1.10,2013-02-06 20:35:00,
2013-02-06 15:50:00,63.1,32.0,30.18,North,8,4.0,8.0,31,0.00,,,0.01,weatherlink.com 1.10,2013-02-06 20:50:00,
2013-02-06 16:05:00,62.1,32.0,30.17,NNW,336,0.0,4.0,32,0.00,,,0.01,weatherlink.com 1.10,2013-02-06 21:05:00,
2013-02-06 16:20:00,61.7,30.0,30.17,ENE,65,2.0,4.0,30,0.00,,,0.01,weatherlink.com 1.10,2013-02-06 21:20:00,
2013-02-06 16:35:00,60.3,29.0,30.17,NE,37,3.0,4.0,30,0.00,,,0.01,weatherlink.com 1.10,2013-02-06 21:35:00,
2013-02-06 16:50:00,59.0,28.0,30.17,NNE,27,0.0,4.0,31,0.00,,,0.01,weatherlink.com 1.10,2013-02-06 21:50:00,
2013-02-06 17:05:00,58.2,28.0,30.17,NNW,347,1.0,4.0,32,0.00,,,0.01,weatherlink.com 1.10,2013-02-06 22:05:00,
2013-02-06 17:20:00,57.5,27.0,30.17,North,4,1.0,3.0,31,0.00,,,0.01,weatherlink.com 1.10,2013-02-06 22:20:00,
2013-02-06 17:35:00,57.0,28.0,30.17,ENE,65,0.0,1.0,33,0.00,,,0.01,weatherlink.com 1.10,2013-02-06 22:35:00,
2013-02-06 17:50:00,55.1,28.0,30.17,North,354,0.0,2.0,35,0.00,,,0.01,weatherlink.com 1.10,2013-02-06 22:50:00,
2013-02-06 18:05:00,53.0,30.0,30.18,North,354,1.0,2.0,41,0.00,,,0.01,weatherlink.com 1.10,2013-02-06 23:05:00,
2013-02-06 18:20:00,50.8,29.0,30.17,North,6,1.0,2.0,44,0.00,,,0.01,weatherlink.com 1.10,2013-02-06 23:20:00,
2013-02-06 18:35:00,50.0,28.0,30.17,North,1,1.0,2.0,42,0.00,,,0.01,weatherlink.com 1.10,2013-02-06 23:35:00,
2013-02-06 18:50:00,48.8,29.0,30.17,North,353,0.0,2.0,46,0.00,,,0.01,weatherlink.com 1.10,2013-02-06 23:50:00,
2013-02-06 19:05:00,47.3,29.0,30.18,NNW,341,0.0,1.0,50,0.00,,,0.01,weatherlink.com 1.10,2013-02-07 00:05:00,
2013-02-06 19:20:00,46.0,30.0,30.18,NW,304,0.0,1.0,53,0.00,,,0.01,weatherlink.com 1.10,2013-02-07 00:20:00,
2013-02-06 19:35:00,45.0,29.0,30.18,NW,307,0.0,1.0,54,0.00,,,0.01,weatherlink.com 1.10,2013-02-07 00:35:00,
2013-02-06 19:50:00,43.8,29.0,30.19,NW,307,0.0,0.0,57,0.00,,,0.01,weatherlink.com 1.10,2013-02-07 00:50:00,
2013-02-06 20:05:00,42.9,28.0,30.19,NW,307,0.0,1.0,57,0.00,,,0.01,weatherlink.com 1.10,2013-02-07 01:05:00,
2013-02-06 20:20:00,42.1,29.0,30.21,NNW,342,1.0,1.0,61,0.00,,,0.01,weatherlink.com 1.10,2013-02-07 01:20:00,
2013-02-06 20:35:00,41.6,30.0,30.21,NNW,340,0.0,1.0,63,0.00,,,0.01,weatherlink.com 1.10,2013-02-07 01:35:00,
2013-02-06 20:50:00,41.1,31.0,30.21,NNW,342,0.0,1.0,67,0.00,,,0.01,weatherlink.com 1.10,2013-02-07 01:50:00,
2013-02-06 21:05:00,40.3,29.0,30.21,NNW,342,1.0,1.0,65,0.00,,,0.01,weatherlink.com 1.10,2013-02-07 02:05:00,
2013-02-06 21:20:00,39.6,31.0,30.21,NNW,342,1.0,1.0,70,0.00,,,0.01,weatherlink.com 1.10,2013-02-07 02:20:00,
2013-02-06 21:35:00,38.9,30.0,30.21,NNW,342,0.0,1.0,70,0.00,,,0.01,weatherlink.com 1.10,2013-02-07 02:35:00,
2013-02-06 21:50:00,38.5,30.0,30.21,NNW,342,0.0,1.0,71,0.00,,,0.01,weatherlink.com 1.10,2013-02-07 02:50:00,
2013-02-06 22:05:00,37.9,30.0,30.21,NNW,342,0.0,1.0,73,0.00,,,0.01,weatherlink.com 1.10,2013-02-07 03:05:00,
2013-02-06 22:20:00,37.4,30.0,30.21,NNW,341,0.0,1.0,76,0.00,,,0.01,weatherlink.com 1.10,2013-02-07 03:20:00,
2013-02-06 22:35:00,37.1,30.0,30.22,NNW,341,0.0,1.0,76,0.00,,,0.01,weatherlink.com 1.10,2013-02-07 03:35:00,
2013-02-06 22:50:00,36.8,31.0,30.21,NNW,342,0.0,1.0,78,0.00,,,0.01,weatherlink.com 1.10,2013-02-07 03:50:00,
2013-02-06 23:05:00,36.5,31.0,30.20,NNW,341,0.0,1.0,79,0.00,,,0.01,weatherlink.com 1.10,2013-02-07 04:05:00,
2013-02-06 23:20:00,36.4,31.0,30.20,NNW,342,0.0,1.0,80,0.00,,,0.01,weatherlink.com 1.10,2013-02-07 04:20:00,
2013-02-06 23:35:00,36.1,31.0,30.20,NNW,342,0.0,1.0,81,0.00,,,0.01,weatherlink.com 1.10,2013-02-07 04:35:00,
2013-02-06 23:50:00,36.0,31.0,30.20,NNW,342,0.0,1.0,83,0.00,,,0.01,weatherlink.com 1.10,2013-02-07 04:50:00,